Meteopurmerend
purmerend
Purmerend - Baaienwijk



My webcam  My webcam


waarschuwing voor Onweer Meer informatie blitzortung!


Regen radar Meer informatie rain snow radar


Bezoek onze andere website:

CandyAppleRed WebdesignWebdesign Purmerend Candy Apple Red

MeteopurmerendBlog

Template documentation
and downloads



Onweer van: 26-07-2021 13:00 tot: 21:00 waarschuwing voor: Onweer niveau: Geel info button
Enkele onweersbuien, lokaal met hagel en veel neerslag in korte tijd.Kans op blikseminslag, hagel en veel neerslag in korte tijd.Verkeer en buitenactiviteiten kunnen hinder ondervinden.Mijd open water en open gebied, schuil niet onder bomen.Volg weerberichten en waarschuwingen.

15 daagse weersverwachting Rauma (FI)

  • Overzicht
  • Per uur
  • 15 dagen
  • Extra
  • Vergelijk
  • Kaarten
  • Dagkaart
  • Meer »
  • Info
  • Statistieken
  • Directe link
    Temp 6h Neerslag Wind  
 04:56     22:27    Daglengte: 17:31 Vandaag
21:00
22°
 
1
 04:58     22:24    Daglengte: 17:26 Morgen
03:00
17°
 
1
09:00
22°
 
2
15:00
30°
 
2
21:00
23°
 
2
 05:01     22:22    Daglengte: 17:21 Woensdag 28 Jul
03:00
19°
 
3
09:00
22°
 
3
15:00
23°
2.4 mm
6
warningclass
21:00
21°
2.8 mm
3
warningclass
 05:03     22:19    Daglengte: 17:16 Donderdag 29 Jul
03:00
18°
2.5 mm
3
09:00
19°
3.6 mm
4
warningclass
15:00
21°
10.3 mm
4
Locatie info
Region: Satakunta
Latitude: 61.1311°N
Longitude: 21.5102°E
14 masl
Postcode: 26100
Temp/Neerslag /Baro Onweer/Dauwpunt
    Temp Baro 1h Neerslag Dauwpunt Wind UV Bewolking  
 04:56     22:27    Daglengte: 17:31 Vandaag
17:00
24°
1019.7 hPa   12.4°
3
Windvlaag: -2.5 m/s
10%
18:00
24°
1019.5 hPa   12.8°
3
Windvlaag: -2.8 m/s
7%
19:00
23°
1019.2 hPa   13.0°
2
Windvlaag: -3.2 m/s
6%
20:00
23°
1019.0 hPa   13.2°
2
Windvlaag: -2.9 m/s
7%
21:00
22°
1018.9 hPa   14.4°
1
Windvlaag: -2.1 m/s
6%
22:00
20°
1018.9 hPa   16.0°
1
Windvlaag: -1.6 m/s
8%
23:00
19°
1019.0 hPa   16.4°
1
Windvlaag: -0.5 m/s
7%
 04:58     22:24    Daglengte: 17:26 Morgen
00:00
18°
1019.0 hPa   16.3°
1
Windvlaag: -0 m/s
6%
01:00
18°
1019.0 hPa   16.0°
1
Windvlaag: 0.3 m/s
11%
02:00
17°
1018.9 hPa   15.7°
1
Windvlaag: 0.4 m/s
14%
03:00
17°
1018.8 hPa   15.5°
1
Windvlaag: 1.5 m/s
14%
04:00
16°
1018.6 hPa   15.3°
2
Windvlaag: 1 m/s
32%
05:00
16°
1018.3 hPa   15.0°
2
Windvlaag: 1.5 m/s
39%
06:00
16°
1018.0 hPa   14.9°
2
Windvlaag: 2.2 m/s
45%
07:00
18°
1017.7 hPa   15.4°
2
Windvlaag: 1.4 m/s
36%
08:00
20°
1017.4 hPa   16.0°
2
Windvlaag: 2.6 m/s
57%
09:00
22°
1017.2 hPa   15.0°
2
Windvlaag: 2.9 m/s
62%
10:00
25°
1017.2 hPa   13.7°
3
Windvlaag: 2.5 m/s
56%
11:00
26°
1016.9 hPa   12.3°
3
Windvlaag: 2.9 m/s
61%
12:00
28°
Voelt als: 27.3°
1016.5 hPa   11.2°
3
Windvlaag: 3 m/s
43%
13:00
29°
Voelt als: 27.8°
1016.1 hPa   10.6°
3
Windvlaag: 2.3 m/s
41%
14:00
29°
Voelt als: 28.3°
1015.6 hPa   10.1°
3
Windvlaag: 1.6 m/s
11%
15:00
30°
Voelt als: 28.7°
1015.1 hPa   10.8°
2
Windvlaag: 2 m/s
8%
16:00
29°
Voelt als: 28.4°
1014.4 hPa   12.2°
3
Windvlaag: 2.3 m/s
10%
17:00
28°
Voelt als: 27.7°
1013.9 hPa   13.9°
3
Windvlaag: 1.8 m/s
7%
18:00
28°
1013.5 hPa   14.6°
3
Windvlaag: 1.8 m/s
12%
19:00
27°
1013.1 hPa   14.5°
3
Windvlaag: 6.3 m/s
11%
20:00
25°
1012.9 hPa   14.8°
2
Windvlaag: -0 m/s
32%
21:00
23°
1012.6 hPa   15.6°
2
Windvlaag: -1.5 m/s
9%
22:00
22°
1012.4 hPa   15.9°
1
Windvlaag: -0.8 m/s
13%
23:00
21°
1012.3 hPa   17.1°
2
Windvlaag: 4 m/s
13%
 05:01     22:22    Daglengte: 17:21 Woensdag 28 Jul
00:00
21°
1012.0 hPa   18.5°
2
Windvlaag: 3.8 m/s
3%
01:00
20°
1011.7 hPa   17.9°
2
Windvlaag: 3 m/s
5%
02:00
19°
1011.3 hPa   17.7°
2
Windvlaag: 2.8 m/s
8%
03:00
19°
1010.8 hPa   17.7°
3
Windvlaag: 2.1 m/s
16%
04:00
19°
1010.2 hPa   17.1°
3
Windvlaag: 2.1 m/s
31%
05:00
18°
1009.7 hPa   16.4°
3
Windvlaag: 2.2 m/s
23%
06:00
18°
1009.2 hPa   16.2°
3
Windvlaag: 1.7 m/s
23%
07:00
19°
1008.8 hPa   16.5°
3
Windvlaag: 2 m/s
35%
08:00
21°
1008.4 hPa   15.0°
3
Windvlaag: 2.6 m/s
50%
09:00
22°
1007.9 hPa   13.6°
3
Windvlaag: 3.6 m/s
60%
10:00
24°
1007.5 hPa   13.4°
3
Windvlaag: 4 m/s
76%
11:00
25°
1007.2 hPa   12.1°
3
Windvlaag: 3.4 m/s
78%
12:00
25°
1006.1 hPa
74%
14.7°
5
Windvlaag: 0.8 m/s
91%
13:00
23°
1005.9 hPa 0.6 mm
99%
16.6°
5
Windvlaag: 0.6 m/s
95% warningclass
14:00
23°
1005.3 hPa 1.3 mm
100%
18.1°
5
Windvlaag: 1.2 m/s
100% warningclass
15:00
23°
1004.7 hPa 0.6 mm
100%
15.7°
6
Windvlaag: 1 m/s
99% warningclass
16:00
23°
1004.2 hPa
54%
15.7°
5
Windvlaag: 1.5 m/s
89%
17:00
23°
1003.9 hPa
88%
18.7°
4
Windvlaag: -0.2 m/s
88%
18:00
23°
1003.5 hPa 0.5 mm
89%
18.0°
4
Windvlaag: 1.4 m/s
86% warningclass
19:00
22°
1003.3 hPa 0.7 mm
98%
17.9°
5
Windvlaag: 1.5 m/s
85% warningclass
20:00
21°
1002.9 hPa 0.7 mm
100%
18.2°
4
Windvlaag: 1.9 m/s
54% warningclass
21:00
21°
1002.7 hPa 0.9 mm
100%
18.3°
3
Windvlaag: 1.5 m/s
41% warningclass
22:00
20°
1002.5 hPa 1.3 mm
100%
18.2°
3
Windvlaag: 1.7 m/s
65% warningclass
23:00
19°
1002.5 hPa
92%
18.5°
2
Windvlaag: 1.3 m/s
87%
 05:03     22:19    Daglengte: 17:16 Donderdag 29 Jul
00:00
19°
1002.4 hPa 1.3 mm
85%
18.3°
3
Windvlaag: 1.5 m/s
93% warningclass
01:00
19°
1002.2 hPa
84%
18.1°
3
Windvlaag: 1.9 m/s
71%
02:00
18°
1001.7 hPa
25%
17.9°
3
Windvlaag: 2.6 m/s
62%
03:00
18°
1001.4 hPa
21%
17.7°
3
Windvlaag: 2.4 m/s
47%
04:00
18°
1000.9 hPa
21%
17.5°
3
Windvlaag: 2.1 m/s
49%
05:00
17°
1000.6 hPa
21%
17.3°
2
Windvlaag: 2.6 m/s
80%
06:00
18°
1000.2 hPa
21%
17.2°
3
Windvlaag: 2.5 m/s
59%
07:00
18°
1000.1 hPa
26%
16.9°
3
Windvlaag: 2.8 m/s
50%
08:00
19°
1000.0 hPa 1.7 mm
100%
16.1°
3
Windvlaag: 2.4 m/s
66%
09:00
19°
1000.1 hPa 1.9 mm
100%
15.3°
4
Windvlaag: 2.1 m/s
79% warningclass
10:00
19°
998.6 hPa 2.0 mm
100%
14.9°
4
Windvlaag: 7.7 m/s
92% warningclass
11:00
20°
998.4 hPa 1.9 mm
100%
14.2°
4
Windvlaag: 8.7 m/s
67% warningclass
12:00
20°
998.1 hPa 1.7 mm
100%
13.5°
4
Windvlaag: 9.8 m/s
66% warningclass
13:00
20°
997.8 hPa 1.7 mm
100%
13.1°
4
Windvlaag: 9.8 m/s
64%
14:00
20°
997.3 hPa 1.6 mm
100%
12.0°
4
Windvlaag: 9.4 m/s
48%
15:00
21°
996.8 hPa 1.4 mm
100%
11.6°
4
Windvlaag: 8.7 m/s
75%
Temp/Neerslag /Baro Onweer/Dauwpunt
    Temp Baro Neerslag Dauwpunt Wind Bewolking  
 04:56     22:27    Daglengte: 17:31 Vandaag
18:00
24°
1019.5 hPa   12.8°
3
7%
21:00
22°
1018.9 hPa   14.4°
1
6%
 04:58     22:24    Daglengte: 17:26 Morgen
00:00
18°
1019.0 hPa   16.3°
1
6%
03:00
17°
1018.8 hPa   15.5°
1
14%
06:00
16°
1018.0 hPa   14.9°
2
45%
09:00
22°
1017.2 hPa   15.0°
2
62%
12:00
28°
Voelt als: 27.3°
1016.5 hPa   11.2°
3
43%
15:00
30°
Voelt als: 28.7°
1015.1 hPa   10.8°
2
8%
18:00
28°
1013.5 hPa   14.6°
3
12%
21:00
23°
1012.6 hPa   15.6°
2
9%
 05:01     22:22    Daglengte: 17:21 Woensdag 28 Jul
00:00
21°
1012.0 hPa   18.5°
2
3%
03:00
19°
1010.8 hPa   17.7°
3
16%
06:00
18°
1009.2 hPa   16.2°
3
23%
09:00
22°
1007.9 hPa   13.6°
3
60%
12:00
25°
1006.1 hPa   14.7°
5
91%
15:00
23°
1004.7 hPa 2.4 mm 15.7°
6
99% warningclass
18:00
23°
1003.5 hPa 0.5 mm 18.0°
4
86% warningclass
21:00
21°
1002.7 hPa 2.3 mm 18.3°
3
41% warningclass
 05:03     22:19    Daglengte: 17:16 Donderdag 29 Jul
00:00
19°
1002.4 hPa 2.5 mm 18.3°
3
93% warningclass
03:00
18°
1001.4 hPa   17.7°
3
47%
06:00
18°
1000.2 hPa   17.2°
3
59%
09:00
19°
1000.1 hPa 3.6 mm 15.3°
4
79% warningclass
12:00
20°
998.1 hPa 5.7 mm 13.5°
4
66% warningclass
15:00
21°
996.8 hPa 4.6 mm 11.6°
4
75%
18:00
20°
998.0 hPa 25.2 mm 16.0°
7
0%
21:00
18°
996.6 hPa 25.3 mm 15.5°
7
1%
 05:06     22:17    Daglengte: 17:11 Vrijdag 30 Jul
00:00
17°
994.6 hPa 26.0 mm 14.0°
6
1%
03:00
15°
994.1 hPa 27.2 mm 12.0°
6
1%
06:00
14°
992.8 hPa 27.3 mm 11.1°
4
0%
09:00
15°
991.0 hPa 29.5 mm 11.9°
3
0%
12:00
15°
990.4 hPa 32.5 mm 12.9°
2
1%
15:00
17°
990.1 hPa 33.0 mm 12.1°
3
1%
18:00
17°
990.1 hPa 33.2 mm 12.3°
6
1%
21:00
16°
990.9 hPa 33.5 mm 11.6°
6
1%
 05:08     22:14    Daglengte: 17:06 Zaterdag 31 Jul
00:00
15°
992.2 hPa 33.5 mm 10.7°
5
1%
03:00
15°
992.7 hPa 33.5 mm 10.9°
4
1%
06:00
15°
993.7 hPa 33.5 mm 12.5°
4
0%
09:00
17°
995.0 hPa 33.5 mm 12.9°
4
0%
12:00
17°
996.5 hPa 33.5 mm 13.1°
5
1%
15:00
17°
997.8 hPa 33.5 mm 12.9°
5
1%
18:00
16°
998.9 hPa 33.6 mm 12.5°
4
1%
21:00
16°
999.3 hPa 33.6 mm 12.2°
3
1%
 05:11     22:11    Daglengte: 17:00 Zondag 01 Aug
00:00
15°
999.6 hPa 33.6 mm 11.8°
2
1%
03:00
14°
999.3 hPa 33.6 mm 11.4°
2
1%
06:00
14°
998.8 hPa 33.6 mm 11.7°
3
0%
09:00
18°
997.9 hPa 33.7 mm 13.7°
3
1%
12:00
19°
997.0 hPa 34.2 mm 12.2°
4
1%
15:00
15°
996.4 hPa 38.0 mm 13.8°
2
1%
18:00
16°
995.2 hPa 41.2 mm 15.0°
3
1%
21:00
16°
995.2 hPa 42.2 mm 14.7°
4
1%
 05:13     22:09    Daglengte: 16:56 Maandag 02 Aug
00:00
15°
996.4 hPa 42.4 mm 13.2°
4
1%
03:00
15°
996.7 hPa 42.6 mm 13.1°
4
1%
06:00
15°
997.1 hPa 43.2 mm 12.3°
6
1%
09:00
17°
997.3 hPa 43.3 mm 12.8°
6
1%
12:00
18°
997.7 hPa 43.4 mm 11.9°
6
1%
15:00
19°
997.5 hPa 86.8 mm 12.1°
6
0%
21:00
17°
996.5 hPa 87.5 mm 11.4°
5
0%
 05:16     22:06    Daglengte: 16:50 Dinsdag 03 Aug
03:00
13°
995.7 hPa 88.2 mm 11.0°
2
0%
09:00
14°
998.6 hPa 89.4 mm 8.4°
6
1%
15:00
16°
1001.1 hPa 89.5 mm 7.2°
5
0%
21:00
13°
1000.3 hPa 90.4 mm 10.1°
3
1%
 05:18     22:03    Daglengte: 16:45 Woensdag 04 Aug
03:00
13°
1001.1 hPa 99.3 mm 8.0°
7
1%
09:00
15°
1002.9 hPa 101.0 mm 9.0°
9
1%
15:00
16°
1004.9 hPa 101.7 mm 9.6°
8
1%
21:00
15°
1004.3 hPa 101.7 mm 9.2°
3
0%
 05:21     22:01    Daglengte: 16:40 Donderdag 05 Aug
03:00
15°
1001.8 hPa 104.4 mm 13.6°
3
1%
09:00
17°
999.4 hPa 107.1 mm 14.9°
4
1%
15:00
18°
1008.2 hPa 0.7 mm 11.9°
2
62%
21:00
16°
1007.8 hPa 0.8 mm 12.2°
1
64%
 05:24     21:58    Daglengte: 16:34 Vrijdag 06 Aug
03:00
15°
1007.7 hPa 0.6 mm 11.7°
1
65%
09:00
16°
1007.5 hPa 0.4 mm 12.2°
2
66%
15:00
19°
1007.7 hPa 1.2 mm 12.9°
2
61%
21:00
17°
1007.0 hPa 1.4 mm 12.9°
1
60%
 05:26     21:55    Daglengte: 16:29 Zaterdag 07 Aug
03:00
15°
1006.7 hPa 0.5 mm 12.5°
2
63%
09:00
16°
1006.1 hPa 0.8 mm 13.3°
2
64%
15:00
19°
1006.0 hPa 1.3 mm 13.5°
1
66%
21:00
17°
1005.8 hPa 0.7 mm 13.0°
0
63%
 05:29     21:52    Daglengte: 16:23 Zondag 08 Aug
03:00
15°
1005.9 hPa 0.4 mm 12.1°
2
61%
09:00
17°
1005.5 hPa 1.6 mm 12.6°
2
72%
15:00
19°
1006.0 hPa 1.8 mm 13.1°
1
66%
21:00
17°
1006.2 hPa 1.6 mm 13.3°
1
70%
 05:31     21:49    Daglengte: 16:18 Maandag 09 Aug
03:00
15°
1006.4 hPa 0.5 mm 12.8°
2
66%
09:00
17°
1006.4 hPa 1.5 mm 13.5°
2
76%
15:00
19°
1007.0 hPa 1.4 mm 14.0°
1
70%
21:00
17°
1006.9 hPa   13.4°
1
74%
 05:34     21:46    Daglengte: 16:12 Dinsdag 10 Aug
03:00
15°
1007.0 hPa 0.6 mm 12.8°
1
70%
09:00
16°
1006.8 hPa 0.7 mm 13.1°
1
69%
15:00
18°
1007.5 hPa 1.4 mm 13.2°
2
68%
  CAPE Lifted Index Hail Supercell Tornado SRH 3km CL BTM PRES CL TOP PRES Swiss DWD icon SMHI TS
 04:56     22:27    Daglengte: 17:31 Vandaag
17:00 0 J/kg 0.0 K 0 % 0 % 0 % 0 m²/s² 0 0 3.06 1
18:00 0 J/kg -0.3 K 0 % 0 % 0 % 0 m²/s² 0 0 2.7 0
19:00 0 J/kg -0.4 K 0 % 0 % 0 % 0 m²/s² 0 0 2.51 0
20:00 0 J/kg -0.4 K 0 % 0 % 0 % 0 m²/s² 0 0 2.6 0
21:00 0 J/kg -0.4 K 0 % 0 % 0 % 0 m²/s² 0 0 2.51 0
22:00 0 J/kg -0.3 K 0 % 0 % 0 % 0 m²/s² 0 0 2.52 0
23:00 0 J/kg -0.2 K 0 % 0 % 0 % 0 m²/s² 0 0 2.8 0
 04:58     22:24    Daglengte: 17:26 Morgen
00:00 0 J/kg -0.2 K 0 % 0 % 0 % 0 m²/s² 0 0 2.8 0
01:00 0 J/kg 0.6 K 0 % 0 % 0 % 0 m²/s² 0 0 3.66 0
02:00 0 J/kg 1.1 K 0 % 0 % 0 % 0 m²/s² 0 0 4.34 1
03:00 0 J/kg 1.8 K 0 % 0 % 0 % 0 m²/s² 0 0 4.86 1
04:00 0 J/kg 1.2 K 0 % 0 % 0 % 0 m²/s² 0 0 4.44 3
05:00 0 J/kg 0.2 K 0 % 0 % 0 % 0 m²/s² 0 0 3.26 3
06:00 0 J/kg 0.6 K 0 % 0 % 0 % 0 m²/s² 0 0 3.42 3
07:00 0 J/kg 0.6 K 0 % 0 % 0 % 0 m²/s² 0 0 3.33 3
08:00 0 J/kg 0.5 K 0 % 0 % 0 % 0 m²/s² 0 0 3.41 3
09:00 0 J/kg 0.7 K 0 % 0 % 0 % 0 m²/s² 0 0 3.61 3
10:00 34 J/kg -0.4 K 0 % 0 % 0 % 0 m²/s² 0 0 2.66 3
11:00 16 J/kg -0.1 K 0 % 0 % 0 % 0 m²/s² 0 0 3.05 3
12:00 49 J/kg -0.6 K 0 % 0 % 0 % 0 m²/s² 0 0 2.64 2
13:00 34 J/kg -0.6 K 0 % 0 % 0 % 0 m²/s² 0 0 3 3
14:00 120 J/kg -1.0 K 0 % 0 % 0 % 0 m²/s² 0 0 3.11 2
15:00 138 J/kg -1.1 K 0 % 0 % 0 % 0 m²/s² 0 0 3.46 2
16:00 115 J/kg -1.0 K 0 % 0 % 0 % 0 m²/s² 0 0 4.07 2
17:00 49 J/kg -0.6 K 0 % 0 % 0 % 0 m²/s² 0 0 4.74 2
18:00 51 J/kg -0.6 K 0 % 0 % 0 % 0 m²/s² 0 0 4.2 1
19:00 72 J/kg -0.8 K 0 % 0 % 0 % 0 m²/s² 0 0 3.55 0
20:00 85 J/kg -0.7 K 0 % 0 % 0 % 0 m²/s² 0 0 3.02 3
21:00 66 J/kg -0.2 K 0 % 0 % 0 % 0 m²/s² 0 0 3.34 3
22:00 0 J/kg 0.7 K 0 % 0 % 0 % 0 m²/s² 0 0 4.51 3
23:00 0 J/kg 0.3 K 0 % 0 % 0 % 0 m²/s² 0 0 4.77 3
 05:01     22:22    Daglengte: 17:21 Woensdag 28 Jul
00:00 0 J/kg 0.0 K 0 % 0 % 0 % 0 m²/s² 0 0 4.14 1
01:00 0 J/kg -0.1 K 0 % 0 % 0 % 0 m²/s² 0 0 4.25 0
02:00 0 J/kg -0.7 K 0 % 0 % 0 % 0 m²/s² 0 0 2.84 1
03:00 0 J/kg -1.2 K 0 % 0 % 0 % 0 m²/s² 0 0 2.16 2
04:00 0 J/kg -0.9 K 0 % 0 % 0 % 0 m²/s² 0 0 1.41 3
05:00 0 J/kg -0.9 K 0 % 0 % 0 % 0 m²/s² 0 0 0.21 3
06:00 0 J/kg -1.3 K 0 % 0 % 0 % 0 m²/s² 0 0 -1.12 1
07:00 0 J/kg -0.8 K 0 % 0 % 0 % 0 m²/s² 0 0 -0.41 3
08:00 0 J/kg -1.2 K 0 % 0 % 0 % 0 m²/s² 0 0 -0.66 3
09:00 0 J/kg -0.5 K 0 % 0 % 0 % 0 m²/s² 0 0 0.52 3
10:00 147 J/kg -1.2 K 0 % 0 % 0 % 0 m²/s² 0 0 -0.03 3
11:00 258 J/kg -1.6 K 0 % 0 % 0 % 0 m²/s² 0 0 -0.1 3
12:00 447 J/kg -2.2 K 0 % 0 % 0 % 0 m²/s² 0 0 -1.54 61
13:00 613 J/kg -2.4 K 0 % 0 % 0 % 0 m²/s² 0 0 -2.37 61
14:00 936 J/kg -3.3 K 0 % 0 % 0 % 0 m²/s² 0 0 -2.91 61
15:00 891 J/kg -3.5 K 0 % 0 % 0 % 0 m²/s² 0 0 -2.63 80
16:00 1054 J/kg -3.5 K 0 % 0 % 0 % 0 m²/s² 0 0 -2.69 3
17:00 947 J/kg -3.2 K 0 % 0 % 0 % 0 m²/s² 0 0 -2.99 3
18:00 1070 J/kg -3.4 K 0 % 0 % 0 % 0 m²/s² 0 0 -2.92 3
19:00 985 J/kg -3.3 K 0 % 0 % 0 % 0 m²/s² 0 0 -3.09 3
20:00 987 J/kg -3.4 K 0 % 0 % 0 % 0 m²/s² 0 0 -3.31 3
21:00 1019 J/kg -3.4 K 0 % 0 % 0 % 0 m²/s² 0 0 -3.28 2
22:00 687 J/kg -2.6 K 0 % 0 % 0 % 0 m²/s² 0 0 -2.33 2
23:00 492 J/kg -2.3 K 0 % 0 % 0 % 0 m²/s² 0 0 -1.91 2
 05:03     22:19    Daglengte: 17:16 Donderdag 29 Jul
00:00 505 J/kg -2.7 K 0 % 0 % 0 % 0 m²/s² 0 0 -2.22 3
01:00 665 J/kg -2.6 K 0 % 0 % 0 % 0 m²/s² 0 0 -2.24 2
02:00 635 J/kg -2.6 K 0 % 0 % 0 % 0 m²/s² 0 0 -2.15 2
03:00 543 J/kg -2.6 K 0 % 0 % 0 % 0 m²/s² 0 0 -2.12 1
04:00 454 J/kg -2.5 K 0 % 0 % 0 % 0 m²/s² 0 0 -1.06 1
05:00 411 J/kg -2.3 K 0 % 0 % 0 % 0 m²/s² 0 0 0.31 2
06:00 224 J/kg -1.2 K 0 % 0 % 0 % 0 m²/s² 0 0 2.22 2
07:00 205 J/kg -1.0 K 0 % 0 % 0 % 0 m²/s² 0 0 2.24 3
08:00 253 J/kg -1.1 K 0 % 0 % 0 % 0 m²/s² 0 0 1.33 80
09:00 217 J/kg -0.7 K 0 % 0 % 0 % 0 m²/s² 0 0 0.95 95
10:00 114 J/kg -0.1 K 0 % 0 % 0 % 0 m²/s² 0 0 1.25 95
11:00 14 J/kg 1.0 K 0 % 0 % 0 % 0 m²/s² 0 0 2.77 95
12:00 0 J/kg 1.9 K 0 % 0 % 0 % 0 m²/s² 0 0 4.18 95
13:00 0 J/kg 2.1 K 0 % 0 % 0 % 0 m²/s² 0 0 4.26 80
14:00 0 J/kg 2.8 K 0 % 0 % 0 % 0 m²/s² 0 0 4.63 80
15:00 0 J/kg 2.4 K 0 % 0 % 0 % 0 m²/s² 0 0 4.05 80
Temp Baro Wind Neerslag
  EWN Forecast EWN WRFDA DWD ICON FMI HIRLAM MET Norway GFS
 04:56     22:27    Daglengte: 17:31 Vandaag
18:00 23.6° 1019.5 hPa 2.5 m/s 0.0 mm 24.3° 1018.5 hPa 3.0 m/s 0.0 mm 23.5° 1019.4 hPa 2.5 m/s -2.0 mm 23.2° 1019.6 hPa 2.0 m/s 0.0 mm 21.6° 1019.4 hPa 2.9 m/s
21:00 21.6° 1018.9 hPa 1.4 m/s 0.0 mm 22.2° 1017.9 hPa 1.7 m/s 0.0 mm 21.5° 1018.6 hPa 1.5 m/s 0.0 mm 20.5° 1019.2 hPa 0.9 m/s 0.0 mm 19.6° 1018.8 hPa 1.2 m/s
 04:58     22:24    Daglengte: 17:26 Morgen
00:00 18.3° 1019.0 hPa 1.3 m/s 0.0 mm 17.5° 1018.2 hPa 2.3 m/s 0.0 mm 18.6° 1019.0 hPa 1.3 m/s 0.0 mm 15.7° 1019.3 hPa 1.3 m/s 0.0 mm 18.0° 1018.9 hPa 2.4 m/s
03:00 16.6° 1018.8 hPa 1.3 m/s 0.0 mm 15.4° 1018.0 hPa 2.9 m/s 0.0 mm 17.0° 1018.3 hPa 1.2 m/s 0.0 mm 13.8° 1019.1 hPa 1.2 m/s 0.0 mm 16.9° 1018.9 hPa 2.6 m/s
06:00 16.4° 1018.0 hPa 1.6 m/s 0.0 mm 17.6° 1017.0 hPa 3.2 m/s 0.0 mm 16.5° 1017.7 hPa 1.4 m/s 0.0 mm 13.1° 1018.4 hPa 1.4 m/s 0.0 mm 17.4° 1018.1 hPa 2.9 m/s
09:00 22.2° 1017.2 hPa 2.2 m/s 0.0 mm 23.3° 1016.4 hPa 3.5 m/s 0.0 mm 22.1° 1017.1 hPa 1.8 m/s 0.0 mm 21.4° 1017.9 hPa 2.0 m/s 0.0 mm 22.0° 1017.2 hPa 3.0 m/s
12:00 27.8° 1016.5 hPa 3.0 m/s 0.0 mm 26.6° 1015.8 hPa 4.5 m/s 0.0 mm 27.1° 1016.2 hPa 2.2 m/s 0.0 mm 28.4° 1017.0 hPa 2.8 m/s 0.0 mm 25.6° 1016.1 hPa 2.4 m/s
15:00 29.9° 1015.1 hPa 2.2 m/s 0.0 mm 28.5° 1014.5 hPa 4.5 m/s 0.0 mm 29.1° 1014.5 hPa 1.7 m/s 0.0 mm 30.4° 1015.9 hPa 1.1 m/s 0.0 mm 25.6° 1015.0 hPa 3.1 m/s
18:00 27.6° 1013.5 hPa 2.6 m/s 0.0 mm 28.7° 1012.7 hPa 4.9 m/s 0.0 mm 27.4° 1012.9 hPa 2.3 m/s 0.0 mm 25.5° 1014.6 hPa 2.5 m/s 0.0 mm 21.3° 1014.1 hPa 2.7 m/s
21:00 23.3° 1012.6 hPa 1.7 m/s 0.0 mm 25.7° 1011.6 hPa 3.3 m/s 0.0 mm 23.1° 1012.0 hPa 1.4 m/s 0.0 mm 21.6° 1013.6 hPa 1.4 m/s 0.0 mm 20.9° 1012.9 hPa 2.4 m/s
 05:01     22:22    Daglengte: 17:21 Woensdag 28 Jul
00:00 20.6° 1012.0 hPa 2.3 m/s 0.0 mm 20.8° 1011.3 hPa 4.2 m/s 0.0 mm 21.1° 1011.5 hPa 2.2 m/s 0.0 mm 15.6° 1012.7 hPa 0.7 m/s 0.0 mm 19.1° 1012.5 hPa 3.0 m/s
03:00 19.0° 1010.8 hPa 2.6 m/s 0.0 mm 19.1° 1009.3 hPa 4.3 m/s 0.0 mm 19.6° 1010.3 hPa 2.6 m/s 0.0 mm 13.6° 1011.6 hPa 1.3 m/s 0.0 mm 18.0° 1011.2 hPa 3.9 m/s
06:00 18.2° 1009.2 hPa 2.8 m/s 0.0 mm 19.3° 1007.8 hPa 4.9 m/s 0.0 mm 18.5° 1008.6 hPa 3.2 m/s 0.0 mm 13.7° 1010.6 hPa 1.5 m/s 0.0 mm 17.2° 1009.6 hPa 3.2 m/s
09:00 22.0° 1007.9 hPa 2.7 m/s 0.0 mm 23.9° 1005.7 hPa 6.2 m/s 0.0 mm 21.6° 1007.3 hPa 2.8 m/s 0.0 mm 21.5° 1009.2 hPa 1.9 m/s 0.0 mm 18.9° 1008.0 hPa 4.6 m/s
12:00 24.8° 1006.1 hPa 4.8 m/s 0.0 mm 26.9° 1004.2 hPa 7.1 m/s 0.0 mm 22.5° 1006.1 hPa 4.3 m/s 0.1 mm 18.0° 1006.5 hPa 6.5 m/s
15:00 23.2° 1004.7 hPa 5.6 m/s 2.4 mm 26.0° 1003.5 hPa 6.5 m/s 1.3 mm 20.3° 1004.6 hPa 5.9 m/s 2.9 mm 17.8° 1004.8 hPa 5.1 m/s
18:00 23.0° 1003.5 hPa 4.4 m/s 0.5 mm 24.2° 1002.6 hPa 4.6 m/s 2.8 mm 21.2° 1003.2 hPa 5.1 m/s 0.2 mm 19.1° 1004.3 hPa 4.6 m/s
21:00 20.5° 1002.7 hPa 3.1 m/s 2.3 mm 21.8° 1002.0 hPa 2.6 m/s 6.0 mm 20.3° 1002.3 hPa 3.6 m/s 0.4 mm 18.7° 1003.6 hPa 2.6 m/s
 05:03     22:19    Daglengte: 17:16 Donderdag 29 Jul
00:00 19.0° 1002.4 hPa 2.8 m/s 2.5 mm 19.6° 1001.7 hPa 3.0 m/s 10.5 mm 18.9° 1002.1 hPa 3.1 m/s 0.2 mm 17.2° 1002.9 hPa 2.6 m/s
03:00 18.1° 1001.4 hPa 2.5 m/s 0.0 mm 18.8° 1001.0 hPa 3.2 m/s 11.6 mm 17.5° 1001.0 hPa 2.5 m/s 0.0 mm 17.1° 1001.5 hPa 2.8 m/s
06:00 17.5° 1000.2 hPa 2.7 m/s 0.0 mm 18.0° 999.9 hPa 2.7 m/s 11.7 mm 17.5° 999.6 hPa 2.8 m/s 0.0 mm 17.3° 1000.7 hPa 2.8 m/s
09:00 19.0° 1000.1 hPa 3.6 m/s 3.6 mm 20.3° 1000.3 hPa 4.5 m/s 11.7 mm 19.1° 998.4 hPa 3.7 m/s 1.5 mm 18.4° 999.8 hPa 4.0 m/s
12:00 19.7° 998.1 hPa 4.1 m/s 5.7 mm 20.7° 1000.1 hPa 6.4 m/s 11.7 mm 19.5° 997.6 hPa 3.5 m/s 2.6 mm 19.7° 999.9 hPa 4.3 m/s
15:00 20.9° 996.8 hPa 4.2 m/s 4.6 mm 22.1° 1000.4 hPa 6.0 m/s 11.7 mm 20.6° 995.9 hPa 3.8 m/s 1.1 mm 20.2° 999.7 hPa 4.9 m/s
18:00 20.3° 998.0 hPa 7.0 m/s 25.2 mm 20.3° 998.0 hPa 7.0 m/s 25.2 mm
21:00 18.5° 996.6 hPa 6.9 m/s 25.3 mm 18.5° 996.6 hPa 6.9 m/s 25.3 mm
 05:06     22:17    Daglengte: 17:11 Vrijdag 30 Jul
00:00 17.2° 994.6 hPa 5.9 m/s 26.0 mm 17.2° 994.6 hPa 5.9 m/s 26.0 mm
03:00 15.4° 994.1 hPa 6.3 m/s 27.2 mm 15.4° 994.1 hPa 6.3 m/s 27.2 mm
06:00 14.3° 992.8 hPa 3.7 m/s 27.3 mm 14.3° 992.8 hPa 3.7 m/s 27.3 mm
09:00 15.0° 991.0 hPa 3.2 m/s 29.5 mm 15.0° 991.0 hPa 3.2 m/s 29.5 mm
12:00 15.4° 990.4 hPa 1.9 m/s 32.5 mm 15.4° 990.4 hPa 1.9 m/s 32.5 mm
15:00 17.1° 990.1 hPa 3.1 m/s 33.0 mm 17.1° 990.1 hPa 3.1 m/s 33.0 mm
18:00 16.7° 990.1 hPa 5.7 m/s 33.2 mm 16.7° 990.1 hPa 5.7 m/s 33.2 mm
21:00 15.6° 990.9 hPa 6.0 m/s 33.5 mm 15.6° 990.9 hPa 6.0 m/s 33.5 mm
 05:08     22:14    Daglengte: 17:06 Zaterdag 31 Jul
00:00 15.3° 992.2 hPa 5.4 m/s 33.5 mm 15.3° 992.2 hPa 5.4 m/s 33.5 mm
03:00 14.7° 992.7 hPa 3.9 m/s 33.5 mm 14.7° 992.7 hPa 3.9 m/s 33.5 mm
06:00 15.0° 993.7 hPa 4.2 m/s 33.5 mm 15.0° 993.7 hPa 4.2 m/s 33.5 mm
09:00 16.5° 995.0 hPa 4.4 m/s 33.5 mm 16.5° 995.0 hPa 4.4 m/s 33.5 mm
12:00 16.9° 996.5 hPa 4.8 m/s 33.5 mm 16.9° 996.5 hPa 4.8 m/s 33.5 mm
15:00 16.9° 997.8 hPa 4.6 m/s 33.5 mm 16.9° 997.8 hPa 4.6 m/s 33.5 mm
18:00 16.3° 998.9 hPa 4.1 m/s 33.6 mm 16.3° 998.9 hPa 4.1 m/s 33.6 mm
21:00 16.0° 999.3 hPa 3.0 m/s 33.6 mm 16.0° 999.3 hPa 3.0 m/s 33.6 mm
 05:11     22:11    Daglengte: 17:00 Zondag 01 Aug
00:00 14.6° 999.6 hPa 2.2 m/s 33.6 mm 14.6° 999.6 hPa 2.2 m/s 33.6 mm
03:00 14.1° 999.3 hPa 1.8 m/s 33.6 mm 14.1° 999.3 hPa 1.8 m/s 33.6 mm
06:00 13.5° 998.8 hPa 3.0 m/s 33.6 mm 13.5° 998.8 hPa 3.0 m/s 33.6 mm
09:00 17.8° 997.9 hPa 3.5 m/s 33.7 mm 17.8° 997.9 hPa 3.5 m/s 33.7 mm
12:00 18.9° 997.0 hPa 3.8 m/s 34.2 mm 18.9° 997.0 hPa 3.8 m/s 34.2 mm
15:00 15.3° 996.4 hPa 2.4 m/s 38.0 mm 15.3° 996.4 hPa 2.4 m/s 38.0 mm
18:00 16.0° 995.2 hPa 3.0 m/s 41.2 mm 16.0° 995.2 hPa 3.0 m/s 41.2 mm
21:00 16.0° 995.2 hPa 4.2 m/s 42.2 mm 16.0° 995.2 hPa 4.2 m/s 42.2 mm
 05:13     22:09    Daglengte: 16:56 Maandag 02 Aug
00:00 15.0° 996.4 hPa 4.4 m/s 42.4 mm 15.0° 996.4 hPa 4.4 m/s 42.4 mm
03:00 15.0° 996.7 hPa 4.3 m/s 42.6 mm 15.0° 996.7 hPa 4.3 m/s 42.6 mm
06:00 15.5° 997.1 hPa 5.7 m/s 43.2 mm 15.5° 997.1 hPa 5.7 m/s 43.2 mm
09:00 16.6° 997.3 hPa 6.1 m/s 43.3 mm 16.6° 997.3 hPa 6.1 m/s 43.3 mm
12:00 18.1° 997.7 hPa 5.7 m/s 43.4 mm 18.1° 997.7 hPa 5.7 m/s 43.4 mm
15:00 18.7° 997.5 hPa 5.6 m/s 43.5 mm 18.7° 997.5 hPa 5.6 m/s 43.5 mm
21:00 16.6° 996.5 hPa 4.7 m/s 43.8 mm 16.6° 996.5 hPa 4.7 m/s 43.8 mm
 05:16     22:06    Daglengte: 16:50 Dinsdag 03 Aug
03:00 13.5° 995.7 hPa 1.8 m/s 44.3 mm 13.5° 995.7 hPa 1.8 m/s 44.3 mm
09:00 14.3° 998.6 hPa 6.2 m/s 44.7 mm 14.3° 998.6 hPa 6.2 m/s 44.7 mm
15:00 15.9° 1001.1 hPa 4.5 m/s 44.7 mm 15.9° 1001.1 hPa 4.5 m/s 44.7 mm
21:00 12.6° 1000.3 hPa 3.2 m/s 45.7 mm 12.6° 1000.3 hPa 3.2 m/s 45.7 mm
 05:18     22:03    Daglengte: 16:45 Woensdag 04 Aug
03:00 13.5° 1001.1 hPa 6.8 m/s 50.2 mm 13.5° 1001.1 hPa 6.8 m/s 50.2 mm
09:00 14.8° 1002.9 hPa 8.6 m/s 50.6 mm 14.8° 1002.9 hPa 8.6 m/s 50.6 mm
15:00 15.8° 1004.9 hPa 7.5 m/s 50.9 mm 15.8° 1004.9 hPa 7.5 m/s 50.9 mm
21:00 15.4° 1004.3 hPa 3.3 m/s 50.9 mm 15.4° 1004.3 hPa 3.3 m/s 50.9 mm
 05:21     22:01    Daglengte: 16:40 Donderdag 05 Aug
03:00 14.5° 1001.8 hPa 3.3 m/s 53.3 mm 14.5° 1001.8 hPa 3.3 m/s 53.3 mm
09:00 17.1° 999.4 hPa 4.0 m/s 53.7 mm 17.1° 999.4 hPa 4.0 m/s 53.7 mm
15:00 18.2° 1008.2 hPa 1.9 m/s 0.7 mm
21:00 16.3° 1007.8 hPa 0.8 m/s 0.8 mm
 05:24     21:58    Daglengte: 16:34 Vrijdag 06 Aug
03:00 14.7° 1007.7 hPa 1.4 m/s 0.6 mm
09:00 16.0° 1007.5 hPa 1.7 m/s 0.4 mm
15:00 18.6° 1007.7 hPa 1.8 m/s 1.2 mm
21:00 16.9° 1007.0 hPa 0.6 m/s 1.4 mm
 05:26     21:55    Daglengte: 16:29 Zaterdag 07 Aug
03:00 15.2° 1006.7 hPa 1.8 m/s 0.5 mm
09:00 16.5° 1006.1 hPa 2.0 m/s 0.8 mm
15:00 19.0° 1006.0 hPa 1.0 m/s 1.3 mm
21:00 17.2° 1005.8 hPa 0.3 m/s 0.7 mm
 05:29     21:52    Daglengte: 16:23 Zondag 08 Aug
03:00 15.4° 1005.9 hPa 1.6 m/s 0.4 mm
09:00 16.6° 1005.5 hPa 1.9 m/s 1.6 mm
15:00 19.0° 1006.0 hPa 0.9 m/s 1.8 mm
21:00 17.3° 1006.2 hPa 1.2 m/s 1.6 mm
 05:31     21:49    Daglengte: 16:18 Maandag 09 Aug
03:00 15.5° 1006.4 hPa 2.1 m/s 0.5 mm
09:00 16.7° 1006.4 hPa 1.8 m/s 1.5 mm
15:00 18.9° 1007.0 hPa 1.2 m/s 1.4 mm
21:00 17.0° 1006.9 hPa 0.7 m/s 0.0 mm
 05:34     21:46    Daglengte: 16:12 Dinsdag 10 Aug
03:00 15.3° 1007.0 hPa 1.1 m/s 0.6 mm
09:00 16.3° 1006.8 hPa 1.3 m/s 0.7 mm
15:00 18.0° 1007.5 hPa 1.8 m/s 1.4 mm
FMI Hirlam - 7.5 km EWN WRFDA - 12 km DWD ICON - 7 km GFS - 25 km Basiskaart






























































Updatetijd (Europe/Amsterdam) Resolutie Lengte Stap
FMI Hirlam 14:00, 20:00, 02:00, 08:00 7.5 km 49h 1h
EWN WRFDA 10:30, 16:30, 22:30, 04:30 12 km 73h 1h
DWD ICON 11:45, 17:45, 23:45, 05:45 7 km 75h 1h
GFS 14:15, 20:15, 02:15, 08:15 25 km 237h 3h
30+ mm
25-30 mm
20-25 mm
15-20 mm
10-15 mm
6-10 mm
4-6 mm
2-4 mm
1-2 mm
0.5-1 mm
0.2-0.5 mm
0.1-0.2 mm
30+ mm
25-30 mm
20-25 mm
15-20 mm
10-15 mm
6-10 mm
4-6 mm
2-4 mm
1-2 mm
0.5-1 mm
0.2-0.5 mm
0.1-0.2 mm
Sneeuwval
Natte sneeuw
Hagel
Vorst
30+ mm
25-30 mm
20-25 mm
15-20 mm
10-15 mm
6-10 mm
4-6 mm
2-4 mm
1-2 mm
0.5-1 mm
0.2-0.5 mm
0.1-0.2 mm
Sneeuwval
Natte sneeuw
Hagel
Vorst
Onweer
50 mm
40 mm
30 mm
26 mm
22 mm
18 mm
14 mm
10 mm
9 mm
8 mm
7 mm
6 mm
5 mm
4.5 mm
4 mm
3.5 mm
3 mm
2.5 mm
2 mm
1.5 mm
1 mm
0.8 mm
0.6 mm
0.4 mm
0.2 mm
0.05 mm
35°
30°
25°
20°
15°
10°
-5°
-10°
-15°
-20°
-25°
-30°
-35°
33> m/s
29 m/s
25 m/s
21 m/s
17 m/s
14 m/s
11 m/s
8 m/s
5 m/s
3 m/s
0 m/s
2600 J/kg
2400 J/kg
2200 J/kg
2000 J/kg
1800 J/kg
1600 J/kg
1400 J/kg
1200 J/kg
1000 J/kg
800 J/kg
600 J/kg
400 J/kg
200 J/kg
70 dBZ
65 dBZ
60 dBZ
55 dBZ
50 dBZ
45 dBZ
40 dBZ
35 dBZ
30 dBZ
25 dBZ
20 dBZ
15 dBZ
10 dBZ
5 dBZ
-1 K
-2 K
-3 K
-4 K
-5 K
-6 K
-7 K
-8 K
-9 K
950 m²/s²
900 m²/s²
850 m²/s²
800 m²/s²
750 m²/s²
700 m²/s²
650 m²/s²
600 m²/s²
550 m²/s²
500 m²/s²
450 m²/s²
400 m²/s²
350 m²/s²
300 m²/s²
250 m²/s²
200 m²/s²
150 m²/s²
100 m²/s²
46 m/s
44 m/s
42 m/s
40 m/s
38 m/s
36 m/s
34 m/s
32 m/s
30 m/s
28 m/s
26 m/s
24 m/s
22 m/s
20 m/s
16 m/s
12 m/s
8 m/s
4 m/s
30 m/s
28 m/s
26 m/s
24 m/s
22 m/s
20 m/s
18 m/s
16 m/s
14 m/s
12 m/s
10 m/s
8 m/s
6 m/s
4 m/s
2 m/s
3.0
2.8
2.6
2.4
2.2
2.0
1.8
1.6
1.4
1.2
1.0
0.8
0.6
0.4
0.2
15
14
13
12
11
10
9
8
7
6
5
4
3
2
1
90%
80%
70%
60%
50%
40%
30%
20%
10%
42
40
38
36
34
32
30
28
26
24
22
20
18
16
14
12
90+ cm
80-90 cm
70-80 cm
60-70 cm
50-60 cm
40-50 cm
30-40 cm
20-30 cm
10-20 cm
1-10 cm
Sneeuwval
Natte sneeuw
Regen
>120 mm
115 mm
110 mm
105 mm
100 mm
95 mm
90 mm
85 mm
80 mm
75 mm
70 mm
65 mm
60 mm
55 mm
50 mm
45 mm
45 mm
40 mm
35 mm
30 mm
25 mm
20 mm
15 mm
10 mm
5 mm
0.1 mm
960 hPa
880 hPa
800 hPa
720 hPa
640 hPa
560 hPa
584 gpdm
568 gpdm
552 gpdm
536 gpdm
520 gpdm